CZ-2F DEB, 67692

Orbit data source: Space-Track

CZ-2F DEB, 67692 is space debris in LEO originally from a launch on Sat, 07 Feb 2026 UTC launched from the Jiuquan Satellite Launch Center, China (JSC). Debris objects in space refer to the collection of defunct objects orbiting the Earth. Examples of debris include non-operational satellites, rocket bodies, and fragments generated from explosions, collisions, or faulty payload assembly.

Loading next visibility...
Identifier
67692, 2026-024D
Orbit
LEO
Country
Flag of CNCN / PRC
Related business
Manufacturer
CALT?
Mission
Spacecraft
Bus & Motor
Unknown
Mass
1 kg wet, 1 kg dry
Launch date (UTC)
2026-02-07 (1 month ago)
Launch vehicle
Unknown
Launch site
Jiuquan Satellite Launch Center, China (JSC)
Object type
Payload
Rocket body
Debris
Shape & HBR
Unknown
Radar Cross Section
RCS unknown

Expand to show TLE details & history
Last TLE update: 9 hours ago

TLE from 9 hours ago
0 CZ-2F DEB
1 67692U 26024D   26071.94679819  .00272484  00000-0  44575-2 0  9997
2 67692  50.3201   2.6338 0223534 292.7463  65.0016 15.28011300  5124
Epoch: 2026-03-12T22:43Z
TLE epoch observation values (Epoch: 2026-03-12T22:43:23.363Z)
Latitude
Longitude
-148.80293°
Altitude
420.407 km
Speed
7.695 km/s
True Right ascension
00h 10m 32s
True Declination
0° 00' 00"
Sunlit
Object was in daylight at epoch
Visualization orbit readout
Latitude
Unknown
Longitude
Unknown
Altitude
Unknown
Speed
Unknown
Apparent Right ascension
Unknown
Apparent Declination
Unknown
Sunlit
N/A
Visualization observer readout
Local Sidereal Time
12:28:09
Azimuth
Unknown
Elevation
Unknown
Doppler factor
Unknown
Orbital elements
Apogee altitude
635.837 km
Perigee altitude
329.121 km
Semi-major axis
6,860.616 km
Eccentricity
0.02235
Inclination
50.3201°
RAAN
2.6338°
Arg. of periapsis
292.7463°
True anomaly
67.35022°
Mean anomaly
65.0016°
Eccentric anomaly
66.1732°
Mean motion
3.81943 °/min
Orbital period
94.25 mins
BSTAR
0.0044575
Loading maneuver chart data...
Computing Atmospheric mass density...
Loading historical data...
Loading historical data...
Loading historical data...
Loading historical data...
Loading historical data...
Loading historical data...
Loading historical data...

Documentation

Showing up to 5 results
|